<?xml version="1.0" encoding="UTF-8" standalone="no" ?>
<gpx xmlns="http://www.topografix.com/GPX/1/1" xmlns:xsi="http://www.w3.org/2001/XMLSchema-instance" xsi:schemaLocation="http://www.topografix.com/GPX/1/1 http://www.topografix.com/GPX/1/1/gpx.xsd" version="1.1" creator="VisuGPX - https://www.visugpx.com">
  <metadata>
    <name>Circuit de Saint-Bond</name>
    <desc><![CDATA[Nombreux panoramas sur la vallée de l\'Yonne et la ville de Sens]]></desc>
  </metadata>
  <trk>
    <name><![CDATA[St-Bond]]></name>
    <trkseg>
      <trkpt lat="48.19804" lon="3.26468">
        <ele>67</ele>
        <time>2009-10-18T14:23:36.000Z</time>
      </trkpt>
      <trkpt lat="48.19805" lon="3.26293">
        <ele>74</ele>
        <time>2009-10-18T14:23:36.000Z</time>
      </trkpt>
      <trkpt lat="48.19971" lon="3.2637">
        <ele>70</ele>
        <time>2009-10-18T14:23:36.000Z</time>
      </trkpt>
      <trkpt lat="48.19995" lon="3.26229">
        <ele>83</ele>
        <time>2009-10-18T14:23:36.000Z</time>
      </trkpt>
      <trkpt lat="48.20149" lon="3.26077">
        <ele>117</ele>
        <time>2009-10-18T14:23:36.000Z</time>
      </trkpt>
      <trkpt lat="48.20227" lon="3.25843">
        <ele>158</ele>
        <time>2009-10-18T14:23:36.000Z</time>
      </trkpt>
      <trkpt lat="48.20483" lon="3.25935">
        <ele>156</ele>
        <time>2009-10-18T14:23:36.000Z</time>
      </trkpt>
      <trkpt lat="48.20658" lon="3.25958">
        <ele>152</ele>
        <time>2009-10-18T14:23:36.000Z</time>
      </trkpt>
      <trkpt lat="48.20805" lon="3.26102">
        <ele>145</ele>
        <time>2009-10-18T14:23:36.000Z</time>
      </trkpt>
      <trkpt lat="48.20971" lon="3.26172">
        <ele>132</ele>
        <time>2009-10-18T14:23:36.000Z</time>
      </trkpt>
      <trkpt lat="48.21046" lon="3.26315">
        <ele>116</ele>
        <time>2009-10-18T14:23:36.000Z</time>
      </trkpt>
      <trkpt lat="48.21082" lon="3.26282">
        <ele>115</ele>
        <time>2009-10-18T14:23:36.000Z</time>
      </trkpt>
      <trkpt lat="48.21135" lon="3.25866">
        <ele>77</ele>
        <time>2009-10-18T14:23:36.000Z</time>
      </trkpt>
      <trkpt lat="48.21105" lon="3.2565">
        <ele>77</ele>
        <time>2009-10-18T14:23:36.000Z</time>
      </trkpt>
      <trkpt lat="48.21147" lon="3.25469">
        <ele>84</ele>
        <time>2009-10-18T14:23:36.000Z</time>
      </trkpt>
      <trkpt lat="48.20622" lon="3.24747">
        <ele>145</ele>
        <time>2009-10-18T14:23:36.000Z</time>
      </trkpt>
      <trkpt lat="48.20524" lon="3.24725">
        <ele>149</ele>
        <time>2009-10-18T14:23:36.000Z</time>
      </trkpt>
      <trkpt lat="48.20461" lon="3.24616">
        <ele>153</ele>
        <time>2009-10-18T14:23:36.000Z</time>
      </trkpt>
      <trkpt lat="48.20377" lon="3.24541">
        <ele>153</ele>
        <time>2009-10-18T14:23:36.000Z</time>
      </trkpt>
      <trkpt lat="48.19945" lon="3.23316">
        <ele>168</ele>
        <time>2009-10-18T14:23:36.000Z</time>
      </trkpt>
      <trkpt lat="48.19955" lon="3.23229">
        <ele>169</ele>
        <time>2009-10-18T14:23:36.000Z</time>
      </trkpt>
      <trkpt lat="48.19893" lon="3.2312">
        <ele>167</ele>
        <time>2009-10-18T14:23:36.000Z</time>
      </trkpt>
      <trkpt lat="48.19854" lon="3.22898">
        <ele>165</ele>
        <time>2009-10-18T14:23:36.000Z</time>
      </trkpt>
      <trkpt lat="48.19662" lon="3.23298">
        <ele>118</ele>
        <time>2009-10-18T14:23:36.000Z</time>
      </trkpt>
      <trkpt lat="48.19599" lon="3.23337">
        <ele>117</ele>
        <time>2009-10-18T14:23:36.000Z</time>
      </trkpt>
      <trkpt lat="48.19481" lon="3.23436">
        <ele>130</ele>
        <time>2009-10-18T14:23:36.000Z</time>
      </trkpt>
      <trkpt lat="48.19389" lon="3.2373">
        <ele>146</ele>
        <time>2009-10-18T14:23:36.000Z</time>
      </trkpt>
      <trkpt lat="48.19357" lon="3.23831">
        <ele>139</ele>
        <time>2009-10-18T14:23:36.000Z</time>
      </trkpt>
      <trkpt lat="48.19287" lon="3.23588">
        <ele>152</ele>
        <time>2009-10-18T14:23:36.000Z</time>
      </trkpt>
      <trkpt lat="48.19206" lon="3.23559">
        <ele>152</ele>
        <time>2009-10-18T14:23:36.000Z</time>
      </trkpt>
      <trkpt lat="48.19052" lon="3.23167">
        <ele>155</ele>
        <time>2009-10-18T14:23:36.000Z</time>
      </trkpt>
      <trkpt lat="48.18981" lon="3.22964">
        <ele>156</ele>
        <time>2009-10-18T14:23:36.000Z</time>
      </trkpt>
      <trkpt lat="48.1882" lon="3.2284">
        <ele>168</ele>
        <time>2009-10-18T14:23:36.000Z</time>
      </trkpt>
      <trkpt lat="48.18751" lon="3.22449">
        <ele>161</ele>
        <time>2009-10-18T14:23:36.000Z</time>
      </trkpt>
      <trkpt lat="48.1874" lon="3.2218">
        <ele>157</ele>
        <time>2009-10-18T14:23:36.000Z</time>
      </trkpt>
      <trkpt lat="48.18764" lon="3.21992">
        <ele>161</ele>
        <time>2009-10-18T14:23:36.000Z</time>
      </trkpt>
      <trkpt lat="48.18767" lon="3.21622">
        <ele>171</ele>
        <time>2009-10-18T14:23:36.000Z</time>
      </trkpt>
      <trkpt lat="48.18707" lon="3.21171">
        <ele>171</ele>
        <time>2009-10-18T14:23:36.000Z</time>
      </trkpt>
      <trkpt lat="48.18116" lon="3.21416">
        <ele>175</ele>
        <time>2009-10-18T14:23:36.000Z</time>
      </trkpt>
      <trkpt lat="48.1809" lon="3.21355">
        <ele>176</ele>
        <time>2009-10-18T14:23:36.000Z</time>
      </trkpt>
      <trkpt lat="48.17959" lon="3.21414">
        <ele>176</ele>
        <time>2009-10-18T14:23:36.000Z</time>
      </trkpt>
      <trkpt lat="48.17885" lon="3.21036">
        <ele>180</ele>
        <time>2009-10-18T14:23:36.000Z</time>
      </trkpt>
      <trkpt lat="48.17809" lon="3.21021">
        <ele>174</ele>
        <time>2009-10-18T14:23:36.000Z</time>
      </trkpt>
      <trkpt lat="48.17742" lon="3.20939">
        <ele>171</ele>
        <time>2009-10-18T14:23:36.000Z</time>
      </trkpt>
      <trkpt lat="48.17725" lon="3.20865">
        <ele>171</ele>
        <time>2009-10-18T14:23:36.000Z</time>
      </trkpt>
      <trkpt lat="48.17523" lon="3.2023">
        <ele>183</ele>
        <time>2009-10-18T14:23:36.000Z</time>
      </trkpt>
      <trkpt lat="48.17483" lon="3.20162">
        <ele>183</ele>
        <time>2009-10-18T14:23:36.000Z</time>
      </trkpt>
      <trkpt lat="48.17265" lon="3.2034">
        <ele>180</ele>
        <time>2009-10-18T14:23:36.000Z</time>
      </trkpt>
      <trkpt lat="48.16934" lon="3.2022">
        <ele>147</ele>
        <time>2009-10-18T14:23:36.000Z</time>
      </trkpt>
      <trkpt lat="48.16879" lon="3.20313">
        <ele>142</ele>
        <time>2009-10-18T14:23:36.000Z</time>
      </trkpt>
      <trkpt lat="48.16759" lon="3.20137">
        <ele>154</ele>
        <time>2009-10-18T14:23:36.000Z</time>
      </trkpt>
      <trkpt lat="48.16668" lon="3.20243">
        <ele>142</ele>
        <time>2009-10-18T14:23:36.000Z</time>
      </trkpt>
      <trkpt lat="48.16708" lon="3.20398">
        <ele>140</ele>
        <time>2009-10-18T14:23:36.000Z</time>
      </trkpt>
      <trkpt lat="48.16401" lon="3.20547">
        <ele>178</ele>
        <time>2009-10-18T14:23:36.000Z</time>
      </trkpt>
      <trkpt lat="48.16343" lon="3.20432">
        <ele>180</ele>
        <time>2009-10-18T14:23:36.000Z</time>
      </trkpt>
      <trkpt lat="48.15982" lon="3.20688">
        <ele>183</ele>
        <time>2009-10-18T14:23:36.000Z</time>
      </trkpt>
      <trkpt lat="48.159" lon="3.21957">
        <ele>172</ele>
        <time>2009-10-18T14:23:36.000Z</time>
      </trkpt>
      <trkpt lat="48.15935" lon="3.22072">
        <ele>171</ele>
        <time>2009-10-18T14:23:36.000Z</time>
      </trkpt>
      <trkpt lat="48.15928" lon="3.22441">
        <ele>164</ele>
        <time>2009-10-18T14:23:36.000Z</time>
      </trkpt>
      <trkpt lat="48.15958" lon="3.22664">
        <ele>161</ele>
        <time>2009-10-18T14:23:36.000Z</time>
      </trkpt>
      <trkpt lat="48.1594" lon="3.23208">
        <ele>152</ele>
        <time>2009-10-18T14:23:36.000Z</time>
      </trkpt>
      <trkpt lat="48.1597" lon="3.23349">
        <ele>140</ele>
        <time>2009-10-18T14:23:36.000Z</time>
      </trkpt>
      <trkpt lat="48.16042" lon="3.23465">
        <ele>128</ele>
        <time>2009-10-18T14:23:36.000Z</time>
      </trkpt>
      <trkpt lat="48.16064" lon="3.23499">
        <ele>124</ele>
        <time>2009-10-18T14:23:36.000Z</time>
      </trkpt>
      <trkpt lat="48.16093" lon="3.23748">
        <ele>115</ele>
        <time>2009-10-18T14:23:36.000Z</time>
      </trkpt>
      <trkpt lat="48.16259" lon="3.23805">
        <ele>123</ele>
        <time>2009-10-18T14:23:36.000Z</time>
      </trkpt>
      <trkpt lat="48.16699" lon="3.24478">
        <ele>167</ele>
        <time>2009-10-18T14:23:36.000Z</time>
      </trkpt>
      <trkpt lat="48.169" lon="3.24629">
        <ele>154</ele>
        <time>2009-10-18T14:23:36.000Z</time>
      </trkpt>
      <trkpt lat="48.17211" lon="3.25111">
        <ele>111</ele>
        <time>2009-10-18T14:23:36.000Z</time>
      </trkpt>
      <trkpt lat="48.17501" lon="3.25385">
        <ele>89</ele>
        <time>2009-10-18T14:23:36.000Z</time>
      </trkpt>
      <trkpt lat="48.17546" lon="3.25393">
        <ele>90</ele>
        <time>2009-10-18T14:23:36.000Z</time>
      </trkpt>
      <trkpt lat="48.176" lon="3.25475">
        <ele>87</ele>
        <time>2009-10-18T14:23:36.000Z</time>
      </trkpt>
      <trkpt lat="48.17627" lon="3.25462">
        <ele>87</ele>
        <time>2009-10-18T14:23:36.000Z</time>
      </trkpt>
      <trkpt lat="48.17659" lon="3.25381">
        <ele>86</ele>
        <time>2009-10-18T14:23:36.000Z</time>
      </trkpt>
      <trkpt lat="48.17695" lon="3.25335">
        <ele>82</ele>
        <time>2009-10-18T14:23:36.000Z</time>
      </trkpt>
      <trkpt lat="48.1775" lon="3.25188">
        <ele>75</ele>
        <time>2009-10-18T14:23:36.000Z</time>
      </trkpt>
      <trkpt lat="48.17747" lon="3.24993">
        <ele>77</ele>
        <time>2009-10-18T14:23:36.000Z</time>
      </trkpt>
      <trkpt lat="48.17824" lon="3.24988">
        <ele>83</ele>
        <time>2009-10-18T14:23:36.000Z</time>
      </trkpt>
      <trkpt lat="48.17855" lon="3.25029">
        <ele>85</ele>
        <time>2009-10-18T14:23:36.000Z</time>
      </trkpt>
      <trkpt lat="48.17939" lon="3.25783">
        <ele>75</ele>
        <time>2009-10-18T14:23:36.000Z</time>
      </trkpt>
      <trkpt lat="48.18204" lon="3.25794">
        <ele>117</ele>
        <time>2009-10-18T14:23:36.000Z</time>
      </trkpt>
      <trkpt lat="48.18376" lon="3.25656">
        <ele>164</ele>
        <time>2009-10-18T14:23:36.000Z</time>
      </trkpt>
      <trkpt lat="48.18416" lon="3.25717">
        <ele>157</ele>
        <time>2009-10-18T14:23:36.000Z</time>
      </trkpt>
      <trkpt lat="48.18618" lon="3.25721">
        <ele>148</ele>
        <time>2009-10-18T14:23:36.000Z</time>
      </trkpt>
      <trkpt lat="48.18734" lon="3.25918">
        <ele>127</ele>
        <time>2009-10-18T14:23:36.000Z</time>
      </trkpt>
      <trkpt lat="48.18755" lon="3.26046">
        <ele>115</ele>
        <time>2009-10-18T14:23:36.000Z</time>
      </trkpt>
      <trkpt lat="48.18845" lon="3.26115">
        <ele>91</ele>
        <time>2009-10-18T14:23:36.000Z</time>
      </trkpt>
      <trkpt lat="48.18953" lon="3.26103">
        <ele>81</ele>
        <time>2009-10-18T14:23:36.000Z</time>
      </trkpt>
      <trkpt lat="48.19042" lon="3.26132">
        <ele>79</ele>
        <time>2009-10-18T14:23:36.000Z</time>
      </trkpt>
      <trkpt lat="48.1924" lon="3.26202">
        <ele>73</ele>
        <time>2009-10-18T14:23:36.000Z</time>
      </trkpt>
      <trkpt lat="48.19541" lon="3.26201">
        <ele>78</ele>
        <time>2009-10-18T14:23:36.000Z</time>
      </trkpt>
      <trkpt lat="48.19769" lon="3.26286">
        <ele>74</ele>
        <time>2009-10-18T14:23:36.000Z</time>
      </trkpt>
      <trkpt lat="48.19769" lon="3.26286">
        <ele>74</ele>
        <time>2009-10-18T14:23:36.000Z</time>
      </trkpt>
    </trkseg>
  </trk>
</gpx>